National Oceanic Atmosphere Administration National Weather Service Headquarters National Weather Service Headquarters
NOAA logo WFO Anchorage Scalable transition graphic NWS logo
Transition from title bar to navgation bar   Aviation Weather 07 AKDT 
blankspace Home   |   Mobile   |   Social Media   |   Mesonet   |   Surface Map   |   Radar   |   Submit Storm Reports =15 GMT 

LocalForecast by City, St or Zip Code

spacer

Forecasts/Products
  Public
  Forecast Discussion
    - With Glossary
  Aviation
  Marine
  Hydrology(RFC)
  Rivers & Lakes AHPS
  Ice Desk
  TV Weather
  Fire Weather
  Avalanche
  Travel 511
  Graphical
  xml logo RSS Feeds
  Marine FTPMail

spacer

Data
  Mesonet
  Model Graphics
  Local Model
  Observations
  Marine Obs
  Satellite/Radar
  Vent Factor
  Soaring Index
  Weather Links

spacer

Climate
  PAFC Climate
  Interactive Climate
  PAFC Records
  Local
  National
  More

spacer

Outreach
  About Us
  Community Outreach
  Kids' Page
  Tour/Speaker Request
  Weather Classroom
  Social Media

spacer

Reports
  COOP Observers
  Local Storm Reports
  Spotter Page
  Submit a Storm Report

spacer

Miscellaneous
  Archived Alaska Weather Stories
  Student Career Opportunities
  Research Papers

spacer

Print Friendly/
Low Bandwidth

  Public Forecasts
  Marine Forecasts

spacer

Contact Us
  mailto pafcweb

spacer

Facebook Follow the National Weather Service in Alaska on Twitter
USA.gov is the U.S. government's official web portal to all federal, state and local government web resources and services.


 ICAO ID:   AAWU Graphics

Internet access to TAFs and METAR observations is for planning purposes only. We can not guarantee the timeliness of internet products. Before flying please get a formal pilot briefing (1-800-992-7433) and ALWAYS file a Flight Plan!Pilot briefings are provided to licensed aircraft pilots, ONLY! Others may not use the above number to obtain weather information.

Check out the Key to TAFs and METARs for help with decoding the information.

A 12 hour summary of TAFs can be found here.

PAAQ TAF
PAAQ 221403Z 2214/2312  VRB05KT P6SM BKN070 OVC100
      TEMPO 2214/2216 2SM BR BKN001
     FM222200 18004KT P6SM VCSH BKN050=


SPECI PAAQ 221437Z AUTO 02003KT 3SM BR CLR 09/08 A3018 RMK AO2 T00890083
     TSNO $=
SPECI PAAQ 221430Z AUTO 03003KT 1 3/4SM BR CLR 09/08 A3018 RMK AO2 VIS
     1/2V5 T00890083 TSNO $=
PAAQ 221412Z AUTO 00000KT 10SM SCT001 08/07 A3018 RMK AO2
     T00830072 TSNO $=
SPECI PAAQ 221348Z AUTO 00000KT 1 1/4SM BR BKN001 09/08 A3018 RMK AO2
     TSNO $=
SPECI PAAQ 221342Z AUTO 35004KT 2 1/2SM BR FEW001 09/09 A3018 RMK AO2
     T00940089 TSNO $=
METAR PAAQ 221253Z AUTO 00000KT 10SM CLR 09/08 A3018 RMK AO2 SLP223
     T00940083 TSNO=
METAR PAAQ 221153Z AUTO 00000KT 10SM CLR 09/08 A3018 RMK AO2 SLP222
    60007 70007 T00940083 10150 20094 51005 TSNO=


National Weather Service
Anchorage Forecast Office
6930 Sand Lake Road
Anchorage, Ak 99502
(907) 266-5105 M-F/7-5pm
About Us
Career Opportunities
Glossary
Disclaimer
Privacy Policy
Credits
Alaska Weather Information Line:
1-800-472-0391